Hourly Data Report for July 24, 2017

ALGONQUIN PARK EAST GATE
ONTARIO

45°32'00.000" N
78°16'00.000" W
397.00 m
6080192
71581
TNK

Download Data

Hourly Data (July 2017)
Hourly Data Report for July 24, 2017
TIME
LST
Temp Definition
°C
Dew Point Definition
°C
Rel Hum Definition
%
Precip. Amount Definition
mm

Wind Dir Definition
10's deg

Wind Spd Definition
km/h
Visibility Definition
km
Stn Press Definition
kPa
Hmdx Definition


Wind Chill Definition


Weather Definition


00:00 14.5 10.3 76 0.0 16 3   96.41     LegendNANA
01:00 13.5 11.4 87 2.3 18 2   96.37     LegendNANA
02:00 13.3 11.6 90 0.7 5 2   96.32     LegendNANA
03:00 12.8 11.4 91 2.3 5 1   96.33     LegendNANA
04:00 12.8 11.1 89 5.9 6 3   96.29     LegendNANA
05:00 12.7 10.9 89 0.6 5 3   96.31     LegendNANA
06:00 12.5 10.7 89 0.7 8 6   96.33     LegendNANA
07:00 12.5 10.7 89 0.0 9 4   96.37     LegendNANA
08:00 12.3 10.8 90 1.2 8 6   96.41     LegendNANA
09:00 12.4 10.8 90 0.6 6 5   96.40     LegendNANA
10:00 12.5 10.9 90 0.2 7 5   96.45     LegendNANA
11:00 12.8 11.0 89 0.0 6 6   96.44     LegendNANA
12:00 13.6 11.8 89 0.2 6 5   96.43     LegendNANA
13:00 13.7 11.4 87 0.0 4 5   96.47     LegendNANA
14:00 13.4 11.6 89 0.3 6 6   96.52     LegendNANA
15:00 13.6 11.8 89 0.2 4 5   96.56     LegendNANA
16:00 13.8 12.1 89 0.0 5 5   96.59     LegendNANA
17:00 13.7 11.9 89 0.0 4 6   96.64     LegendNANA
18:00 13.6 11.9 90 0.6 5 4   96.69     LegendNANA
19:00 13.3 11.6 90 0.3 4 5   96.76     LegendNANA
20:00 13.1 11.5 90 0.0 5 5   96.82     LegendNANA
21:00 13.0 11.6 91 0.2 3 5   96.89     LegendNANA
22:00 13.1 11.6 91 0.0 4 3   96.96     LegendNANA
23:00 13.1 11.5 90 0.0 5 4   97.03     LegendNANA

Notes on Data Quality.

Legend

  • E = Estimated
  • M = Missing
  • NA = Not Available*
  • [empty] = Indicates an unobserved value
Date modified: